Weather History for Homestead AFB, FL

Change the Weather History Date:

Monday, January 6, 2014

  Actual Average Record
Temperature  
Mean Temperature 71 °F -  
Max Temperature 82 °F 75 °F 85 °F (1949)
Min Temperature 58 °F 55 °F 31 °F (1956)
Cooling Degree Days 6    
Growing Degree Days 21 (Base 50)    
Moisture  
Dew Point 67 °F    
Average Humidity 84    
Maximum Humidity 100    
Minimum Humidity 40    
Precipitation  
Precipitation 0.03 in - - ()
Sea Level Pressure  
Sea Level Pressure 30.04 in    
Wind  
Wind Speed 5 mph (West)    
Max Wind Speed 23 mph    
Max Gust Speed 31 mph    
Visibility 8 miles    
Events Rain    
Averages and records for this station are not official NWS values.
T = Trace of Precipitation, MM = Missing Value Source: NWS Daily Summary

Daily Weather History Graph

Daily Weather History Graph

Search for Another Location

Airport:

Trip Planner

Search our weather history database for the weather conditions in past years. The results will help you decide how hot, cold, wet, or windy it might be!

Date:

Astronomy

Jan. 06, 2014 Rise Set
Actual Time 7:08 AM EST 5:46 PM EST
Civil Twilight 6:43 AM EST 6:11 PM EST
Nautical Twilight 6:15 AM EST 6:39 PM EST
Astronomical Twilight 5:47 AM EST 7:07 PM EST
Moon 11:01 AM EST (1/6) 11:36 PM EST (1/6)
Length of Visible Light 11h 27m
Length of Day
10h 37m
Waxing Crescent, 34% of the Moon is Illuminated
Jan 6
Waxing Crescent
Jan 7
First Quarter
Jan 15
Full
Jan 24
Last Quarter
Jan 30
New

Hourly Weather History & Observations

Time (EST) Temp. Heat Index Dew Point Humidity Pressure Visibility Wind Dir Wind Speed Gust Speed Precip Events Conditions
12:58 AM 68.0 °F - 68.0 °F 100% 30.02 in 3.0 mi South 2.3 mph - 0.00 in   Clear
1:58 AM 66.7 °F - 66.7 °F 100% 30.01 in 3.0 mi Calm Calm - N/A   Clear
2:58 AM 66.0 °F - 66.0 °F 100% 30.01 in 3.0 mi SW 1.2 mph - N/A   Clear
3:58 AM 66.7 °F - 66.7 °F 100% 30.01 in 3.0 mi Calm Calm - 0.01 in   Clear
4:58 AM 66.2 °F - 66.2 °F 100% 30.01 in 3.0 mi SSW 2.3 mph - N/A   Clear
6:03 AM 66.2 °F - 66.2 °F 100% 30.01 in 7.0 mi Calm Calm - N/A   Clear
6:58 AM 66.2 °F - 66.2 °F 100% 30.03 in 2.0 mi Calm Calm - N/A   Clear
7:48 AM 68.0 °F - 68.0 °F 100% 30.05 in 10.0 mi South 2.3 mph - N/A   Partly Cloudy
7:58 AM 67.6 °F - 67.6 °F 100% 30.06 in 10.0 mi SSE 4.6 mph - N/A   Partly Cloudy
8:58 AM 72.1 °F - 72.1 °F 100% 30.08 in 10.0 mi South 2.3 mph - N/A   Clear
9:58 AM 74.5 °F - 74.5 °F 100% 30.09 in 10.0 mi South 2.3 mph - N/A   Clear
10:58 AM 77.2 °F - 77.2 °F 100% 30.07 in 10.0 mi SSW 5.8 mph - N/A   Clear
11:58 AM 79.5 °F - 73.0 °F 80% 30.05 in 10.0 mi South 5.8 mph - N/A   Clear
12:58 PM 81.9 °F 86.2 °F 71.4 °F 70% 30.02 in 10.0 mi SSW 6.9 mph - N/A   Clear
1:58 PM 82.6 °F 87.3 °F 71.6 °F 69% 30.00 in 10.0 mi South 5.8 mph - N/A   Partly Cloudy
2:48 PM 80.6 °F 83.9 °F 69.8 °F 70% 29.99 in 10.0 mi WNW 12.7 mph - N/A   Mostly Cloudy
2:53 PM 78.8 °F - 69.8 °F 74% 29.99 in 10.0 mi West 17.3 mph - N/A   Light Drizzle
2:55 PM 77.0 °F - 69.8 °F 78% 29.99 in 10.0 mi WNW 16.1 mph - N/A   Mostly Cloudy
2:58 PM 77.0 °F - 69.8 °F 78% 30.00 in 10.0 mi WNW 16.1 mph - 0.00 in   Mostly Cloudy
3:08 PM 77.0 °F - 68.0 °F 74% 29.99 in 10.0 mi NW 8.1 mph - N/A   Mostly Cloudy
3:14 PM 77.0 °F - 68.0 °F 74% 30.00 in 10.0 mi WNW 5.8 mph - N/A Rain Light Rain
3:45 PM 73.4 °F - 69.8 °F 88% 29.99 in 10.0 mi West 2.3 mph - N/A   Partly Cloudy
3:58 PM 74.5 °F - 70.3 °F 87% 30.00 in 10.0 mi SSW 2.3 mph - 0.02 in   Scattered Clouds
4:58 PM 77.0 °F - 71.8 °F 84% 30.01 in 10.0 mi WNW 8.1 mph - N/A   Scattered Clouds
5:58 PM 74.1 °F - 70.7 °F 89% 30.04 in 10.0 mi NE 1.2 mph - N/A   Mostly Cloudy
6:58 PM 74.5 °F - 68.9 °F 83% 30.06 in 10.0 mi West 4.6 mph - N/A   Overcast
7:58 PM 71.6 °F - 65.5 °F 81% 30.09 in 10.0 mi NNW 16.1 mph - N/A   Scattered Clouds
8:58 PM 66.0 °F - 56.5 °F 71% 30.14 in 10.0 mi NNW 18.4 mph 28.8 mph N/A   Mostly Cloudy
9:58 PM 63.5 °F - 50.2 °F 62% 30.16 in 10.0 mi NNW 17.3 mph - N/A   Mostly Cloudy
10:58 PM 60.8 °F - 36.1 °F 40% 30.17 in 10.0 mi NNW 23.0 mph - N/A   Overcast
11:58 PM 58.5 °F - 46.0 °F 63% 30.17 in 10.0 mi NNW 19.6 mph 31.1 mph N/A   Mostly Cloudy